Time,TemperatureF,DewpointF,PressureIn,WindDirection,WindDirectionDegrees,WindSpeedMPH,WindSpeedGustMPH,Humidity,HourlyPrecipIn,Conditions,Clouds,dailyrainin,SoftwareType,DateUTC
2013-05-30 00:02:00,63.7,50.0,30.16,WSW,258,0.0,0.0,61,0.00,,,0.00,meteohub,2013-05-30 04:02:00,
2013-05-30 00:07:00,63.5,50.2,30.16,West,280,0.0,0.0,62,0.00,,,0.00,meteohub,2013-05-30 04:07:00,
2013-05-30 00:12:00,63.3,50.2,30.13,South,190,0.0,0.0,62,0.00,,,0.00,meteohub,2013-05-30 04:12:00,
2013-05-30 00:17:00,63.3,50.2,30.13,SE,145,0.0,0.0,62,0.00,,,0.00,meteohub,2013-05-30 04:17:00,
2013-05-30 00:27:00,63.0,50.2,30.16,North,10,0.0,0.0,63,0.00,,,0.00,meteohub,2013-05-30 04:27:00,
2013-05-30 00:32:00,62.6,50.2,30.16,WSW,258,0.0,0.0,64,0.00,,,0.00,meteohub,2013-05-30 04:32:00,
2013-05-30 00:37:00,62.6,50.2,30.16,SE,145,0.0,0.0,64,0.00,,,0.00,meteohub,2013-05-30 04:37:00,
2013-05-30 00:42:00,62.4,50.5,30.16,SSE,168,0.0,0.0,65,0.00,,,0.00,meteohub,2013-05-30 04:42:00,
2013-05-30 00:47:00,62.2,50.4,30.16,SSE,168,0.0,0.0,65,0.00,,,0.00,meteohub,2013-05-30 04:47:00,
2013-05-30 00:52:00,61.9,50.4,30.16,SSE,168,0.0,0.0,66,0.00,,,0.00,meteohub,2013-05-30 04:52:00,
2013-05-30 00:57:00,61.9,50.4,30.16,SE,145,0.0,0.0,66,0.00,,,0.00,meteohub,2013-05-30 04:57:00,
2013-05-30 01:02:00,61.7,50.2,30.16,NE,55,0.0,0.0,66,0.00,,,0.00,meteohub,2013-05-30 05:02:00,
2013-05-30 01:07:00,61.5,50.5,30.16,WNW,302,0.0,0.0,67,0.00,,,0.00,meteohub,2013-05-30 05:07:00,
2013-05-30 01:12:00,61.2,50.2,30.16,WNW,302,0.0,0.0,67,0.00,,,0.00,meteohub,2013-05-30 05:12:00,
2013-05-30 01:17:00,61.0,50.0,30.16,SE,145,0.0,0.0,67,0.00,,,0.00,meteohub,2013-05-30 05:17:00,
2013-05-30 01:22:00,61.0,50.0,30.16,SSE,168,0.0,0.0,67,0.00,,,0.00,meteohub,2013-05-30 05:22:00,
2013-05-30 01:27:00,60.8,50.2,30.16,NNW,348,0.0,0.0,68,0.00,,,0.00,meteohub,2013-05-30 05:27:00,
2013-05-30 01:32:00,60.6,50.0,30.16,NW,325,0.0,0.0,68,0.00,,,0.00,meteohub,2013-05-30 05:32:00,
2013-05-30 01:37:00,60.1,49.8,30.16,East,100,0.0,0.0,69,0.00,,,0.00,meteohub,2013-05-30 05:37:00,
2013-05-30 01:42:00,60.3,50.0,30.16,NE,55,0.0,0.0,69,0.00,,,0.00,meteohub,2013-05-30 05:42:00,
2013-05-30 01:47:00,60.1,49.8,30.16,East,100,0.0,0.0,69,0.00,,,0.00,meteohub,2013-05-30 05:47:00,
2013-05-30 01:57:00,59.9,50.2,30.16,SSE,168,0.0,0.0,70,0.00,,,0.00,meteohub,2013-05-30 05:57:00,
2013-05-30 02:12:00,59.5,50.2,30.16,East,100,0.0,0.0,71,0.00,,,0.00,meteohub,2013-05-30 06:12:00,
2013-05-30 02:17:00,59.5,50.2,30.16,SSE,168,0.0,0.0,71,0.00,,,0.00,meteohub,2013-05-30 06:17:00,
2013-05-30 02:22:00,59.4,50.0,30.16,NNE,32,0.0,0.0,71,0.00,,,0.00,meteohub,2013-05-30 06:22:00,
2013-05-30 02:27:00,59.2,49.8,30.16,SSE,168,0.0,0.0,71,0.00,,,0.00,meteohub,2013-05-30 06:27:00,
2013-05-30 02:32:00,59.0,49.6,30.16,SSE,168,0.0,0.0,71,0.00,,,0.00,meteohub,2013-05-30 06:32:00,
2013-05-30 02:37:00,58.8,49.8,30.16,SSE,168,0.0,0.0,72,0.00,,,0.00,meteohub,2013-05-30 06:37:00,
2013-05-30 02:42:00,58.8,49.8,30.16,SSE,168,0.0,0.0,72,0.00,,,0.00,meteohub,2013-05-30 06:42:00,
2013-05-30 02:47:00,58.6,49.6,30.16,SSE,168,0.0,0.0,72,0.00,,,0.00,meteohub,2013-05-30 06:47:00,
2013-05-30 02:52:00,58.5,49.5,30.16,NW,325,0.0,0.0,72,0.00,,,0.00,meteohub,2013-05-30 06:52:00,
2013-05-30 02:57:00,58.3,49.3,30.16,ESE,122,0.0,0.0,72,0.00,,,0.00,meteohub,2013-05-30 06:57:00,
2013-05-30 03:07:00,58.1,49.1,30.16,WSW,258,0.0,0.0,72,0.00,,,0.00,meteohub,2013-05-30 07:07:00,
2013-05-30 03:12:00,57.9,49.3,30.16,South,190,0.0,0.0,73,0.00,,,0.00,meteohub,2013-05-30 07:12:00,
2013-05-30 03:17:00,57.6,48.9,30.16,NW,325,0.0,0.0,73,0.00,,,0.00,meteohub,2013-05-30 07:17:00,
2013-05-30 03:22:00,57.6,48.9,30.16,NE,55,0.0,0.0,73,0.00,,,0.00,meteohub,2013-05-30 07:22:00,
2013-05-30 03:27:00,57.7,49.1,30.16,NE,55,0.0,0.0,73,0.00,,,0.00,meteohub,2013-05-30 07:27:00,
2013-05-30 03:32:00,57.6,48.9,30.16,NE,55,0.0,0.0,73,0.00,,,0.00,meteohub,2013-05-30 07:32:00,
2013-05-30 03:37:00,57.6,49.3,30.16,ENE,78,0.0,0.0,74,0.00,,,0.00,meteohub,2013-05-30 07:37:00,
2013-05-30 03:42:00,57.6,49.3,30.16,North,10,0.0,0.0,74,0.00,,,0.00,meteohub,2013-05-30 07:42:00,
2013-05-30 03:47:00,57.2,48.9,30.16,ENE,78,0.0,0.0,74,0.00,,,0.00,meteohub,2013-05-30 07:47:00,
2013-05-30 03:52:00,57.0,49.1,30.16,ENE,78,0.0,0.0,75,0.00,,,0.00,meteohub,2013-05-30 07:52:00,
2013-05-30 03:57:00,57.0,49.1,30.16,ENE,78,0.0,0.0,75,0.00,,,0.00,meteohub,2013-05-30 07:57:00,
2013-05-30 04:02:00,57.0,49.1,30.16,ENE,78,0.0,0.0,75,0.00,,,0.00,meteohub,2013-05-30 08:02:00,
2013-05-30 04:07:00,56.8,49.1,30.16,ENE,78,0.0,0.0,75,0.00,,,0.00,meteohub,2013-05-30 08:07:00,
2013-05-30 04:12:00,56.8,49.1,30.19,ENE,78,0.0,0.0,75,0.00,,,0.00,meteohub,2013-05-30 08:12:00,
2013-05-30 04:17:00,56.8,49.1,30.19,ENE,78,0.0,0.0,75,0.00,,,0.00,meteohub,2013-05-30 08:17:00,
2013-05-30 04:22:00,56.7,49.3,30.19,ENE,78,0.0,0.0,76,0.00,,,0.00,meteohub,2013-05-30 08:22:00,
2013-05-30 04:27:00,56.5,49.1,30.19,ENE,78,0.0,0.0,76,0.00,,,0.00,meteohub,2013-05-30 08:27:00,
2013-05-30 04:32:00,56.5,49.1,30.19,ENE,78,0.0,0.0,76,0.00,,,0.00,meteohub,2013-05-30 08:32:00,
2013-05-30 04:37:00,56.1,48.4,30.19,ENE,78,0.0,0.0,75,0.00,,,0.00,meteohub,2013-05-30 08:37:00,
2013-05-30 04:42:00,56.3,48.6,30.19,East,100,0.0,0.0,75,0.00,,,0.00,meteohub,2013-05-30 08:42:00,
2013-05-30 04:47:00,56.3,48.9,30.19,SE,145,0.0,0.0,76,0.00,,,0.00,meteohub,2013-05-30 08:47:00,
2013-05-30 04:52:00,56.1,48.7,30.19,SE,145,0.0,0.0,76,0.00,,,0.00,meteohub,2013-05-30 08:52:00,
2013-05-30 04:57:00,55.9,48.6,30.19,NW,325,0.0,0.0,76,0.00,,,0.00,meteohub,2013-05-30 08:57:00,
2013-05-30 05:02:00,55.8,48.4,30.19,WSW,258,0.0,0.0,76,0.00,,,0.00,meteohub,2013-05-30 09:02:00,
2013-05-30 05:07:00,55.8,48.4,30.19,South,190,0.0,0.0,76,0.00,,,0.00,meteohub,2013-05-30 09:07:00,
2013-05-30 05:12:00,55.9,48.6,30.19,SSE,168,0.0,0.0,76,0.00,,,0.00,meteohub,2013-05-30 09:12:00,
2013-05-30 05:17:00,55.9,48.6,30.19,SSE,168,0.0,0.0,76,0.00,,,0.00,meteohub,2013-05-30 09:17:00,
2013-05-30 05:22:00,55.8,48.7,30.19,SSE,168,0.0,0.0,77,0.00,,,0.00,meteohub,2013-05-30 09:22:00,
2013-05-30 05:27:00,55.4,48.0,30.19,SSE,168,0.0,0.0,76,0.00,,,0.00,meteohub,2013-05-30 09:27:00,
2013-05-30 05:32:00,55.2,48.2,30.19,SSE,168,0.0,0.0,77,0.00,,,0.00,meteohub,2013-05-30 09:32:00,
2013-05-30 05:37:00,55.0,48.0,30.19,North,10,0.0,0.0,77,0.00,,,0.00,meteohub,2013-05-30 09:37:00,
2013-05-30 05:42:00,54.9,47.8,30.19,ENE,78,0.0,0.0,77,0.00,,,0.00,meteohub,2013-05-30 09:42:00,
2013-05-30 05:47:00,54.9,48.2,30.19,NNW,348,0.0,0.0,78,0.00,,,0.00,meteohub,2013-05-30 09:47:00,
2013-05-30 05:52:00,54.7,48.0,30.19,NNW,348,0.0,0.0,78,0.00,,,0.00,meteohub,2013-05-30 09:52:00,
2013-05-30 05:57:00,54.7,48.0,30.19,WSW,258,0.0,0.0,78,0.00,,,0.00,meteohub,2013-05-30 09:57:00,
2013-05-30 06:02:00,54.7,48.0,30.19,SSE,168,0.0,0.0,78,0.00,,,0.00,meteohub,2013-05-30 10:02:00,
2013-05-30 06:07:00,54.7,48.0,30.19,SSE,168,0.0,0.0,78,0.00,,,0.00,meteohub,2013-05-30 10:07:00,
2013-05-30 06:12:00,54.5,47.8,30.22,WNW,302,0.0,0.0,78,0.00,,,0.00,meteohub,2013-05-30 10:12:00,
2013-05-30 06:17:00,54.5,47.8,30.22,WNW,302,0.0,0.0,78,0.00,,,0.00,meteohub,2013-05-30 10:17:00,
2013-05-30 06:22:00,54.5,48.2,30.22,WNW,302,0.0,0.0,79,0.00,,,0.00,meteohub,2013-05-30 10:22:00,
2013-05-30 06:27:00,54.5,48.2,30.22,NW,325,0.0,0.0,79,0.00,,,0.00,meteohub,2013-05-30 10:27:00,
2013-05-30 06:32:00,54.3,48.0,30.22,NW,325,0.0,0.0,79,0.00,,,0.00,meteohub,2013-05-30 10:32:00,
2013-05-30 06:37:00,54.3,48.0,30.22,NW,325,0.0,0.0,79,0.00,,,0.00,meteohub,2013-05-30 10:37:00,
2013-05-30 06:42:00,54.5,48.2,30.22,NW,325,0.0,0.0,79,0.00,,,0.00,meteohub,2013-05-30 10:42:00,
2013-05-30 06:47:00,54.5,48.2,30.22,NW,325,0.0,0.0,79,0.00,,,0.00,meteohub,2013-05-30 10:47:00,
2013-05-30 06:52:00,54.5,48.2,30.22,NNW,348,0.0,0.0,79,0.00,,,0.00,meteohub,2013-05-30 10:52:00,
2013-05-30 06:57:00,54.5,48.4,30.22,NNW,348,0.0,0.0,80,0.00,,,0.00,meteohub,2013-05-30 10:57:00,
2013-05-30 07:02:00,54.5,48.7,30.22,NNW,348,0.0,0.0,81,0.00,,,0.00,meteohub,2013-05-30 11:02:00,
2013-05-30 07:07:00,54.5,48.7,30.22,North,10,2.0,3.0,81,0.00,,,0.00,meteohub,2013-05-30 11:07:00,
2013-05-30 07:12:00,54.5,49.1,30.22,North,10,0.0,3.0,82,0.00,,,0.00,meteohub,2013-05-30 11:12:00,
2013-05-30 07:17:00,54.7,49.3,30.22,North,10,0.0,3.0,82,0.00,,,0.00,meteohub,2013-05-30 11:17:00,
2013-05-30 07:22:00,54.9,49.5,30.22,North,10,0.0,3.0,82,0.00,,,0.00,meteohub,2013-05-30 11:22:00,
2013-05-30 07:27:00,55.0,50.0,30.22,North,10,0.0,0.0,83,0.00,,,0.00,meteohub,2013-05-30 11:27:00,
2013-05-30 07:32:00,55.0,50.0,30.22,North,10,0.0,0.0,83,0.00,,,0.00,meteohub,2013-05-30 11:32:00,
2013-05-30 07:37:00,55.2,50.2,30.22,North,10,0.0,0.0,83,0.00,,,0.00,meteohub,2013-05-30 11:37:00,
2013-05-30 07:42:00,55.2,50.2,30.22,North,10,0.0,0.0,83,0.00,,,0.00,meteohub,2013-05-30 11:42:00,
2013-05-30 07:47:00,55.4,50.4,30.22,North,10,0.0,0.0,83,0.00,,,0.00,meteohub,2013-05-30 11:47:00,
2013-05-30 07:52:00,55.6,50.5,30.22,North,10,0.0,0.0,83,0.00,,,0.00,meteohub,2013-05-30 11:52:00,
2013-05-30 07:57:00,55.8,51.1,30.22,North,10,0.0,0.0,84,0.00,,,0.00,meteohub,2013-05-30 11:57:00,
2013-05-30 08:02:00,55.9,51.3,30.22,North,10,0.0,0.0,84,0.00,,,0.00,meteohub,2013-05-30 12:02:00,
2013-05-30 08:07:00,56.3,51.3,30.22,North,10,0.0,0.0,83,0.00,,,0.00,meteohub,2013-05-30 12:07:00,
2013-05-30 08:12:00,56.3,51.6,30.22,North,10,0.0,0.0,84,0.00,,,0.00,meteohub,2013-05-30 12:12:00,
2013-05-30 08:17:00,56.7,51.6,30.22,North,10,0.0,0.0,83,0.00,,,0.00,meteohub,2013-05-30 12:17:00,
2013-05-30 08:22:00,57.0,52.2,30.22,NNW,348,4.0,0.0,84,0.00,,,0.00,meteohub,2013-05-30 12:22:00,
2013-05-30 08:27:00,57.4,52.5,30.22,North,10,2.0,4.0,84,0.00,,,0.00,meteohub,2013-05-30 12:27:00,
2013-05-30 08:32:00,57.7,52.9,30.22,North,10,0.0,4.0,84,0.00,,,0.00,meteohub,2013-05-30 12:32:00,
2013-05-30 08:37:00,57.9,53.1,30.22,North,10,0.0,4.0,84,0.00,,,0.00,meteohub,2013-05-30 12:37:00,
2013-05-30 08:42:00,58.3,53.4,30.22,NNW,348,0.0,4.0,84,0.00,,,0.00,meteohub,2013-05-30 12:42:00,
2013-05-30 08:47:00,58.8,54.3,30.22,North,10,0.0,0.0,85,0.00,,,0.00,meteohub,2013-05-30 12:47:00,
2013-05-30 08:52:00,59.4,54.5,30.22,NNW,348,4.0,4.0,84,0.00,,,0.00,meteohub,2013-05-30 12:52:00,
2013-05-30 08:57:00,60.1,55.2,30.22,North,10,3.0,4.0,84,0.00,,,0.00,meteohub,2013-05-30 12:57:00,
2013-05-30 09:02:00,60.4,55.6,30.22,NW,325,0.0,5.0,84,0.00,,,0.00,meteohub,2013-05-30 13:02:00,
2013-05-30 09:07:00,61.0,56.1,30.22,NNW,348,0.0,5.0,84,0.00,,,0.00,meteohub,2013-05-30 13:07:00,
2013-05-30 09:12:00,61.7,56.5,30.22,North,10,0.0,4.0,83,0.00,,,0.00,meteohub,2013-05-30 13:12:00,
2013-05-30 09:17:00,62.2,57.0,30.22,NNW,348,0.0,4.0,83,0.00,,,0.00,meteohub,2013-05-30 13:17:00,
2013-05-30 09:22:00,63.0,57.7,30.22,North,10,0.0,4.0,83,0.00,,,0.00,meteohub,2013-05-30 13:22:00,
2013-05-30 09:27:00,63.9,58.3,30.22,North,10,5.0,5.0,82,0.00,,,0.00,meteohub,2013-05-30 13:27:00,
2013-05-30 09:32:00,64.4,58.8,30.22,North,10,0.0,5.0,82,0.00,,,0.00,meteohub,2013-05-30 13:32:00,
2013-05-30 09:37:00,65.1,59.5,30.22,North,10,2.0,5.0,82,0.00,,,0.00,meteohub,2013-05-30 13:37:00,
2013-05-30 09:42:00,65.8,59.9,30.22,North,10,3.0,5.0,81,0.00,,,0.00,meteohub,2013-05-30 13:42:00,
2013-05-30 09:47:00,66.4,60.1,30.22,North,10,0.0,5.0,80,0.00,,,0.00,meteohub,2013-05-30 13:47:00,
2013-05-30 09:52:00,66.9,60.6,30.22,NNE,32,0.0,5.0,80,0.00,,,0.00,meteohub,2013-05-30 13:52:00,
2013-05-30 09:57:00,67.3,61.0,30.22,NNE,32,0.0,3.0,80,0.00,,,0.00,meteohub,2013-05-30 13:57:00,
2013-05-30 10:02:00,68.0,61.2,30.22,NNE,32,0.0,2.0,79,0.00,,,0.00,meteohub,2013-05-30 14:02:00,
2013-05-30 10:07:00,68.9,61.3,30.22,NW,325,2.0,4.0,77,0.00,,,0.00,meteohub,2013-05-30 14:07:00,
2013-05-30 10:12:00,69.8,60.8,30.22,North,10,3.0,5.0,73,0.00,,,0.00,meteohub,2013-05-30 14:12:00,
2013-05-30 10:17:00,70.2,60.8,30.22,SSW,212,4.0,6.0,72,0.00,,,0.00,meteohub,2013-05-30 14:17:00,
2013-05-30 10:22:00,70.9,60.3,30.22,WNW,302,0.0,7.0,69,0.00,,,0.00,meteohub,2013-05-30 14:22:00,
2013-05-30 10:27:00,71.2,61.0,30.22,West,280,6.0,7.0,70,0.00,,,0.00,meteohub,2013-05-30 14:27:00,
2013-05-30 10:32:00,72.0,59.9,30.22,North,10,3.0,7.0,66,0.00,,,0.00,meteohub,2013-05-30 14:32:00,
2013-05-30 10:37:00,72.5,59.7,30.22,NNW,348,0.0,6.0,64,0.00,,,0.00,meteohub,2013-05-30 14:37:00,
2013-05-30 10:42:00,72.7,58.5,30.22,WNW,302,2.0,6.0,61,0.00,,,0.00,meteohub,2013-05-30 14:42:00,
2013-05-30 10:47:00,73.4,59.5,30.22,NNW,348,2.0,6.0,62,0.00,,,0.00,meteohub,2013-05-30 14:47:00,
2013-05-30 10:52:00,73.6,60.6,30.22,SSW,212,3.0,6.0,64,0.00,,,0.00,meteohub,2013-05-30 14:52:00,
2013-05-30 10:57:00,74.5,59.2,30.22,ENE,78,0.0,8.0,59,0.00,,,0.00,meteohub,2013-05-30 14:57:00,
2013-05-30 11:02:00,75.0,59.2,30.22,WNW,302,0.0,8.0,58,0.00,,,0.00,meteohub,2013-05-30 15:02:00,
2013-05-30 11:12:00,75.9,58.6,30.22,ENE,78,0.0,8.0,55,0.00,,,0.00,meteohub,2013-05-30 15:12:00,
2013-05-30 11:17:00,76.5,59.2,30.22,East,100,4.0,6.0,55,0.00,,,0.00,meteohub,2013-05-30 15:17:00,
2013-05-30 11:22:00,77.2,58.3,30.22,SSW,212,0.0,6.0,52,0.00,,,0.00,meteohub,2013-05-30 15:22:00,
2013-05-30 11:27:00,77.5,57.4,30.19,NW,325,6.0,10.0,50,0.00,,,0.00,meteohub,2013-05-30 15:27:00,
2013-05-30 11:32:00,77.4,56.1,30.19,NNW,348,8.0,11.0,48,0.00,,,0.00,meteohub,2013-05-30 15:32:00,
2013-05-30 11:37:00,77.7,58.1,30.19,SSW,212,3.0,12.0,51,0.00,,,0.00,meteohub,2013-05-30 15:37:00,
2013-05-30 11:42:00,77.9,54.9,30.19,WNW,302,2.0,12.0,45,0.00,,,0.00,meteohub,2013-05-30 15:42:00,
2013-05-30 11:47:00,78.3,56.3,30.19,NNW,348,6.0,10.0,47,0.00,,,0.00,meteohub,2013-05-30 15:47:00,
2013-05-30 11:52:00,78.6,56.7,30.19,NNW,348,5.0,9.0,47,0.00,,,0.00,meteohub,2013-05-30 15:52:00,
2013-05-30 11:57:00,78.8,56.3,30.19,North,10,10.0,10.0,46,0.00,,,0.00,meteohub,2013-05-30 15:57:00,
2013-05-30 12:02:00,79.2,55.9,30.19,NNW,348,7.0,15.0,45,0.00,,,0.00,meteohub,2013-05-30 16:02:00,
2013-05-30 12:07:00,79.3,54.9,30.19,NNW,348,5.0,15.0,43,0.00,,,0.00,meteohub,2013-05-30 16:07:00,
2013-05-30 12:12:00,79.3,55.6,30.19,WNW,302,4.0,15.0,44,0.00,,,0.00,meteohub,2013-05-30 16:12:00,
2013-05-30 12:17:00,79.7,55.9,30.19,NW,325,4.0,12.0,44,0.00,,,0.00,meteohub,2013-05-30 16:17:00,
2013-05-30 12:22:00,80.1,56.1,30.19,WNW,302,6.0,9.0,44,0.00,,,0.00,meteohub,2013-05-30 16:22:00,
2013-05-30 12:27:00,80.6,56.7,30.19,WSW,258,5.0,8.0,44,0.00,,,0.00,meteohub,2013-05-30 16:27:00,
2013-05-30 12:32:00,81.0,58.3,30.19,NNW,348,4.0,9.0,46,0.00,,,0.00,meteohub,2013-05-30 16:32:00,
2013-05-30 12:37:00,81.0,56.3,30.19,NNW,348,7.0,9.0,43,0.00,,,0.00,meteohub,2013-05-30 16:37:00,
2013-05-30 12:42:00,81.1,55.9,30.19,WNW,302,3.0,9.0,42,0.00,,,0.00,meteohub,2013-05-30 16:42:00,
2013-05-30 12:52:00,81.7,55.0,30.19,NNW,348,5.0,9.0,40,0.00,,,0.00,meteohub,2013-05-30 16:52:00,
2013-05-30 12:57:00,82.4,55.6,30.19,North,10,5.0,8.0,40,0.00,,,0.00,meteohub,2013-05-30 16:57:00,
2013-05-30 13:02:00,82.6,55.0,30.19,North,10,8.0,11.0,39,0.00,,,0.00,meteohub,2013-05-30 17:02:00,
2013-05-30 13:07:00,82.8,52.3,30.19,ENE,78,0.0,12.0,35,0.00,,,0.00,meteohub,2013-05-30 17:07:00,
2013-05-30 13:12:00,83.1,53.4,30.16,WNW,302,7.0,13.0,36,0.00,,,0.00,meteohub,2013-05-30 17:12:00,
2013-05-30 13:17:00,83.1,51.8,30.16,West,280,5.0,16.0,34,0.00,,,0.00,meteohub,2013-05-30 17:17:00,
2013-05-30 13:22:00,83.3,49.5,30.16,WNW,302,6.0,16.0,31,0.00,,,0.00,meteohub,2013-05-30 17:22:00,
2013-05-30 13:27:00,83.3,50.4,30.16,WNW,302,7.0,16.0,32,0.00,,,0.00,meteohub,2013-05-30 17:27:00,
2013-05-30 13:32:00,83.7,49.8,30.16,WSW,258,7.0,13.0,31,0.00,,,0.00,meteohub,2013-05-30 17:32:00,
2013-05-30 13:37:00,84.0,50.2,30.16,NNW,348,8.0,16.0,31,0.00,,,0.00,meteohub,2013-05-30 17:37:00,
2013-05-30 13:42:00,84.4,49.6,30.16,SW,235,9.0,16.0,30,0.00,,,0.00,meteohub,2013-05-30 17:42:00,
2013-05-30 13:47:00,84.4,50.5,30.16,ENE,78,4.0,16.0,31,0.00,,,0.00,meteohub,2013-05-30 17:47:00,
2013-05-30 13:52:00,84.0,49.3,30.16,SE,145,9.0,11.0,30,0.00,,,0.00,meteohub,2013-05-30 17:52:00,
2013-05-30 13:57:00,84.0,50.2,30.13,South,190,0.0,11.0,31,0.00,,,0.00,meteohub,2013-05-30 17:57:00,
2013-05-30 14:02:00,83.8,50.9,30.13,NE,55,3.0,11.0,32,0.00,,,0.00,meteohub,2013-05-30 18:02:00,
2013-05-30 14:07:00,84.4,51.3,30.13,NW,325,6.0,11.0,32,0.00,,,0.00,meteohub,2013-05-30 18:07:00,
2013-05-30 14:12:00,84.0,51.1,30.13,NNW,348,4.0,9.0,32,0.00,,,0.00,meteohub,2013-05-30 18:12:00,
2013-05-30 14:17:00,83.7,50.7,30.13,WSW,258,0.0,9.0,32,0.00,,,0.00,meteohub,2013-05-30 18:17:00,
2013-05-30 14:22:00,84.4,53.8,30.13,SE,145,6.0,9.0,35,0.00,,,0.00,meteohub,2013-05-30 18:22:00,
2013-05-30 14:27:00,84.7,52.5,30.16,NW,325,8.0,10.0,33,0.00,,,0.00,meteohub,2013-05-30 18:27:00,
2013-05-30 14:32:00,85.3,52.9,30.16,NNW,348,2.0,12.0,33,0.00,,,0.00,meteohub,2013-05-30 18:32:00,
2013-05-30 14:37:00,85.5,52.2,30.16,NNE,32,4.0,12.0,32,0.00,,,0.00,meteohub,2013-05-30 18:37:00,
2013-05-30 14:42:00,84.6,52.3,30.16,NNW,348,6.0,12.0,33,0.00,,,0.00,meteohub,2013-05-30 18:42:00,
2013-05-30 14:47:00,85.3,52.2,30.16,WNW,302,10.0,10.0,32,0.00,,,0.00,meteohub,2013-05-30 18:47:00,
2013-05-30 14:57:00,86.7,56.7,30.16,SSW,212,9.0,12.0,36,0.00,,,0.00,meteohub,2013-05-30 18:57:00,
2013-05-30 15:02:00,86.5,52.3,30.16,North,10,6.0,12.0,31,0.00,,,0.00,meteohub,2013-05-30 19:02:00,
2013-05-30 15:07:00,86.4,52.2,30.16,South,190,6.0,16.0,31,0.00,,,0.00,meteohub,2013-05-30 19:07:00,
2013-05-30 15:12:00,86.7,51.6,30.16,NNW,348,7.0,16.0,30,0.00,,,0.00,meteohub,2013-05-30 19:12:00,
2013-05-30 15:17:00,86.0,50.9,30.16,East,100,5.0,12.0,30,0.00,,,0.00,meteohub,2013-05-30 19:17:00,
2013-05-30 15:22:00,85.8,50.9,30.16,East,100,5.0,12.0,30,0.00,,,0.00,meteohub,2013-05-30 19:22:00,
2013-05-30 15:27:00,85.6,51.6,30.16,NNW,348,7.0,11.0,31,0.00,,,0.00,meteohub,2013-05-30 19:27:00,
2013-05-30 15:32:00,85.5,51.4,30.16,SW,235,5.0,11.0,31,0.00,,,0.00,meteohub,2013-05-30 19:32:00,
2013-05-30 15:37:00,85.6,52.3,30.16,NE,55,2.0,11.0,32,0.00,,,0.00,meteohub,2013-05-30 19:37:00,
2013-05-30 15:47:00,85.8,51.6,30.16,ENE,78,0.0,10.0,31,0.00,,,0.00,meteohub,2013-05-30 19:47:00,
2013-05-30 15:52:00,86.0,52.7,30.16,SSE,168,7.0,10.0,32,0.00,,,0.00,meteohub,2013-05-30 19:52:00,
2013-05-30 15:57:00,86.0,51.8,30.16,East,100,5.0,11.0,31,0.00,,,0.00,meteohub,2013-05-30 19:57:00,
2013-05-30 16:02:00,85.6,51.6,30.16,WNW,302,6.0,13.0,31,0.00,,,0.00,meteohub,2013-05-30 20:02:00,
2013-05-30 16:07:00,86.4,53.8,30.16,North,10,5.0,13.0,33,0.00,,,0.00,meteohub,2013-05-30 20:07:00,
2013-05-30 16:12:00,86.9,53.4,30.13,NW,325,0.0,13.0,32,0.00,,,0.00,meteohub,2013-05-30 20:12:00,
2013-05-30 16:17:00,86.9,53.4,30.13,WNW,302,6.0,10.0,32,0.00,,,0.00,meteohub,2013-05-30 20:17:00,
2013-05-30 16:22:00,86.9,51.8,30.13,NNW,348,7.0,12.0,30,0.00,,,0.00,meteohub,2013-05-30 20:22:00,
2013-05-30 16:27:00,87.1,50.9,30.13,North,10,8.0,16.0,29,0.00,,,0.00,meteohub,2013-05-30 20:27:00,
2013-05-30 16:32:00,87.4,52.2,30.13,SSW,212,4.0,16.0,30,0.00,,,0.00,meteohub,2013-05-30 20:32:00,
2013-05-30 16:37:00,88.2,52.9,30.13,East,100,2.0,16.0,30,0.00,,,0.00,meteohub,2013-05-30 20:37:00,
2013-05-30 16:42:00,88.5,52.2,30.13,ENE,78,12.0,13.0,29,0.00,,,0.00,meteohub,2013-05-30 20:42:00,
2013-05-30 16:47:00,88.5,51.3,30.13,ESE,122,5.0,13.0,28,0.00,,,0.00,meteohub,2013-05-30 20:47:00,
2013-05-30 16:52:00,88.5,51.3,30.13,East,100,3.0,13.0,28,0.00,,,0.00,meteohub,2013-05-30 20:52:00,
2013-05-30 16:57:00,88.3,51.1,30.13,NE,55,4.0,12.0,28,0.00,,,0.00,meteohub,2013-05-30 20:57:00,
2013-05-30 17:02:00,88.7,51.4,30.13,North,10,8.0,14.0,28,0.00,,,0.00,meteohub,2013-05-30 21:02:00,
2013-05-30 17:07:00,88.7,51.4,30.13,North,10,0.0,15.0,28,0.00,,,0.00,meteohub,2013-05-30 21:07:00,
2013-05-30 17:12:00,88.9,51.6,30.13,NE,55,5.0,15.0,28,0.00,,,0.00,meteohub,2013-05-30 21:12:00,
2013-05-30 17:17:00,89.2,49.8,30.13,SSW,212,7.0,15.0,26,0.00,,,0.00,meteohub,2013-05-30 21:17:00,
2013-05-30 17:22:00,89.6,50.2,30.13,East,100,4.0,11.0,26,0.00,,,0.00,meteohub,2013-05-30 21:22:00,
2013-05-30 17:27:00,89.6,50.2,30.13,SSE,168,7.0,11.0,26,0.00,,,0.00,meteohub,2013-05-30 21:27:00,
2013-05-30 17:32:00,89.2,47.7,30.13,NNW,348,8.0,11.0,24,0.00,,,0.00,meteohub,2013-05-30 21:32:00,
2013-05-30 17:37:00,89.2,49.8,30.13,SSW,212,5.0,22.0,26,0.00,,,0.00,meteohub,2013-05-30 21:37:00,
2013-05-30 17:42:00,89.2,47.7,30.16,West,280,3.0,22.0,24,0.00,,,0.00,meteohub,2013-05-30 21:42:00,
2013-05-30 17:47:00,89.2,48.7,30.16,WSW,258,4.0,13.0,25,0.00,,,0.00,meteohub,2013-05-30 21:47:00,
2013-05-30 17:52:00,88.7,48.4,30.16,WSW,258,5.0,13.0,25,0.00,,,0.00,meteohub,2013-05-30 21:52:00,
2013-05-30 17:57:00,87.8,46.6,30.13,SE,145,6.0,11.0,24,0.00,,,0.00,meteohub,2013-05-30 21:57:00,
2013-05-30 18:02:00,87.8,46.6,30.13,SSW,212,3.0,11.0,24,0.00,,,0.00,meteohub,2013-05-30 22:02:00,
2013-05-30 18:07:00,87.8,47.7,30.13,NNE,32,4.0,11.0,25,0.00,,,0.00,meteohub,2013-05-30 22:07:00,
2013-05-30 18:12:00,87.4,46.2,30.16,SW,235,4.0,13.0,24,0.00,,,0.00,meteohub,2013-05-30 22:12:00,
2013-05-30 18:17:00,87.3,48.2,30.16,SE,145,3.0,13.0,26,0.00,,,0.00,meteohub,2013-05-30 22:17:00,
2013-05-30 18:22:00,86.9,47.8,30.16,SSW,212,8.0,13.0,26,0.00,,,0.00,meteohub,2013-05-30 22:22:00,
2013-05-30 18:27:00,85.6,47.8,30.13,SSW,212,6.0,9.0,27,0.00,,,0.00,meteohub,2013-05-30 22:27:00,
2013-05-30 18:32:00,85.1,48.4,30.13,East,100,5.0,10.0,28,0.00,,,0.00,meteohub,2013-05-30 22:32:00,
2013-05-30 18:37:00,84.9,49.1,30.13,East,100,5.0,10.0,29,0.00,,,0.00,meteohub,2013-05-30 22:37:00,
2013-05-30 18:42:00,84.4,48.7,30.13,NNE,32,4.0,9.0,29,0.00,,,0.00,meteohub,2013-05-30 22:42:00,
2013-05-30 18:47:00,83.5,48.7,30.13,SSW,212,0.0,12.0,30,0.00,,,0.00,meteohub,2013-05-30 22:47:00,
2013-05-30 18:52:00,83.3,48.6,30.13,NNE,32,5.0,16.0,30,0.00,,,0.00,meteohub,2013-05-30 22:52:00,
2013-05-30 18:57:00,82.8,49.1,30.13,East,100,6.0,16.0,31,0.00,,,0.00,meteohub,2013-05-30 22:57:00,
2013-05-30 19:02:00,82.8,49.1,30.13,North,10,5.0,13.0,31,0.00,,,0.00,meteohub,2013-05-30 23:02:00,
2013-05-30 19:07:00,82.4,49.6,30.13,SSW,212,0.0,7.0,32,0.00,,,0.00,meteohub,2013-05-30 23:07:00,
2013-05-30 19:12:00,82.2,50.2,30.13,NNW,348,4.0,7.0,33,0.00,,,0.00,meteohub,2013-05-30 23:12:00,
2013-05-30 19:17:00,82.2,51.1,30.13,WSW,258,3.0,6.0,34,0.00,,,0.00,meteohub,2013-05-30 23:17:00,
2013-05-30 19:22:00,82.4,51.3,30.13,WNW,302,4.0,5.0,34,0.00,,,0.00,meteohub,2013-05-30 23:22:00,
2013-05-30 19:27:00,82.2,51.8,30.13,North,10,4.0,5.0,35,0.00,,,0.00,meteohub,2013-05-30 23:27:00,
2013-05-30 19:32:00,82.0,51.6,30.13,NW,325,5.0,7.0,35,0.00,,,0.00,meteohub,2013-05-30 23:32:00,
2013-05-30 19:37:00,81.5,52.0,30.13,WNW,302,5.0,11.0,36,0.00,,,0.00,meteohub,2013-05-30 23:37:00,
2013-05-30 19:42:00,81.3,52.5,30.16,WSW,258,3.0,11.0,37,0.00,,,0.00,meteohub,2013-05-30 23:42:00,
2013-05-30 19:47:00,80.8,52.2,30.16,ESE,122,4.0,11.0,37,0.00,,,0.00,meteohub,2013-05-30 23:47:00,
2013-05-30 19:52:00,80.6,52.7,30.16,East,100,3.0,11.0,38,0.00,,,0.00,meteohub,2013-05-30 23:52:00,
2013-05-30 19:57:00,80.4,53.2,30.16,South,190,0.0,11.0,39,0.00,,,0.00,meteohub,2013-05-30 23:57:00,
2013-05-30 20:02:00,80.1,52.9,30.16,East,100,5.0,11.0,39,0.00,,,0.00,meteohub,2013-05-31 00:02:00,
2013-05-30 20:07:00,79.3,52.9,30.16,East,100,3.0,5.0,40,0.00,,,0.00,meteohub,2013-05-31 00:07:00,
2013-05-30 20:12:00,79.0,53.2,30.13,ESE,122,0.0,5.0,41,0.00,,,0.00,meteohub,2013-05-31 00:12:00,
2013-05-30 20:17:00,78.4,53.4,30.13,NE,55,0.0,5.0,42,0.00,,,0.00,meteohub,2013-05-31 00:17:00,
2013-05-30 20:22:00,78.1,53.1,30.13,East,100,0.0,7.0,42,0.00,,,0.00,meteohub,2013-05-31 00:22:00,
2013-05-30 20:27:00,77.7,52.9,30.13,SSW,212,2.0,7.0,42,0.00,,,0.00,meteohub,2013-05-31 00:27:00,
2013-05-30 20:32:00,77.4,53.1,30.13,South,190,3.0,7.0,43,0.00,,,0.00,meteohub,2013-05-31 00:32:00,
2013-05-30 20:37:00,76.6,53.1,30.13,ESE,122,3.0,7.0,44,0.00,,,0.00,meteohub,2013-05-31 00:37:00,
2013-05-30 20:42:00,76.3,52.7,30.13,SE,145,5.0,5.0,44,0.00,,,0.00,meteohub,2013-05-31 00:42:00,
2013-05-30 20:47:00,76.1,53.2,30.13,East,100,4.0,6.0,45,0.00,,,0.00,meteohub,2013-05-31 00:47:00,
2013-05-30 20:52:00,75.6,52.7,30.13,ESE,122,0.0,6.0,45,0.00,,,0.00,meteohub,2013-05-31 00:52:00,
2013-05-30 20:57:00,75.2,52.3,30.16,SSE,168,5.0,7.0,45,0.00,,,0.00,meteohub,2013-05-31 00:57:00,
2013-05-30 21:02:00,75.0,52.9,30.16,ENE,78,3.0,7.0,46,0.00,,,0.00,meteohub,2013-05-31 01:02:00,
2013-05-30 21:07:00,74.5,52.9,30.16,SSE,168,3.0,7.0,47,0.00,,,0.00,meteohub,2013-05-31 01:07:00,
2013-05-30 21:12:00,74.1,52.7,30.16,ESE,122,4.0,7.0,47,0.00,,,0.00,meteohub,2013-05-31 01:12:00,
2013-05-30 21:17:00,73.9,53.1,30.16,NE,55,0.0,7.0,48,0.00,,,0.00,meteohub,2013-05-31 01:17:00,
2013-05-30 21:22:00,73.6,52.7,30.16,NNE,32,4.0,11.0,48,0.00,,,0.00,meteohub,2013-05-31 01:22:00,
2013-05-30 21:27:00,73.2,52.9,30.16,East,100,4.0,11.0,49,0.00,,,0.00,meteohub,2013-05-31 01:27:00,
2013-05-30 21:32:00,72.9,52.5,30.16,SSE,168,4.0,11.0,49,0.00,,,0.00,meteohub,2013-05-31 01:32:00,
2013-05-30 21:37:00,72.5,52.3,30.16,ENE,78,5.0,7.0,49,0.00,,,0.00,meteohub,2013-05-31 01:37:00,
2013-05-30 21:42:00,72.3,52.7,30.16,SSE,168,3.0,7.0,50,0.00,,,0.00,meteohub,2013-05-31 01:42:00,
2013-05-30 21:47:00,72.1,52.5,30.16,SE,145,6.0,7.0,50,0.00,,,0.00,meteohub,2013-05-31 01:47:00,
2013-05-30 21:52:00,71.8,52.2,30.16,South,190,4.0,7.0,50,0.00,,,0.00,meteohub,2013-05-31 01:52:00,
2013-05-30 21:57:00,71.8,52.2,30.16,SE,145,5.0,6.0,50,0.00,,,0.00,meteohub,2013-05-31 01:57:00,
2013-05-30 22:02:00,71.2,52.2,30.16,SSE,168,4.0,8.0,51,0.00,,,0.00,meteohub,2013-05-31 02:02:00,
2013-05-30 22:07:00,71.1,52.0,30.16,South,190,4.0,8.0,51,0.00,,,0.00,meteohub,2013-05-31 02:07:00,
2013-05-30 22:12:00,70.7,51.6,30.16,ESE,122,4.0,8.0,51,0.00,,,0.00,meteohub,2013-05-31 02:12:00,
2013-05-30 22:17:00,70.3,51.4,30.16,SSE,168,4.0,6.0,51,0.00,,,0.00,meteohub,2013-05-31 02:17:00,
2013-05-30 22:22:00,70.3,52.0,30.16,ESE,122,4.0,6.0,52,0.00,,,0.00,meteohub,2013-05-31 02:22:00,
2013-05-30 22:27:00,70.2,51.8,30.16,SE,145,3.0,6.0,52,0.00,,,0.00,meteohub,2013-05-31 02:27:00,
2013-05-30 22:32:00,70.0,51.6,30.16,SE,145,0.0,5.0,52,0.00,,,0.00,meteohub,2013-05-31 02:32:00,
2013-05-30 22:37:00,69.6,51.8,30.16,SE,145,4.0,4.0,53,0.00,,,0.00,meteohub,2013-05-31 02:37:00,
2013-05-30 22:42:00,69.4,51.6,30.16,SE,145,4.0,4.0,53,0.00,,,0.00,meteohub,2013-05-31 02:42:00,
2013-05-30 22:47:00,69.3,51.4,30.16,East,100,0.0,4.0,53,0.00,,,0.00,meteohub,2013-05-31 02:47:00,
2013-05-30 22:52:00,68.9,51.1,30.16,SSW,212,2.0,4.0,53,0.00,,,0.00,meteohub,2013-05-31 02:52:00,
2013-05-30 22:57:00,68.5,51.3,30.16,SE,145,4.0,4.0,54,0.00,,,0.00,meteohub,2013-05-31 02:57:00,
2013-05-30 23:02:00,68.2,51.4,30.16,South,190,0.0,4.0,55,0.00,,,0.00,meteohub,2013-05-31 03:02:00,
2013-05-30 23:07:00,68.0,51.3,30.16,SSE,168,0.0,4.0,55,0.00,,,0.00,meteohub,2013-05-31 03:07:00,
2013-05-30 23:12:00,67.8,51.6,30.16,South,190,0.0,4.0,56,0.00,,,0.00,meteohub,2013-05-31 03:12:00,
2013-05-30 23:17:00,67.6,51.8,30.16,South,190,3.0,5.0,57,0.00,,,0.00,meteohub,2013-05-31 03:17:00,
2013-05-30 23:22:00,67.3,51.6,30.16,West,280,0.0,6.0,57,0.00,,,0.00,meteohub,2013-05-31 03:22:00,
2013-05-30 23:27:00,67.1,51.8,30.16,ESE,122,0.0,6.0,58,0.00,,,0.00,meteohub,2013-05-31 03:27:00,
2013-05-30 23:32:00,66.7,51.4,30.16,ESE,122,0.0,3.0,58,0.00,,,0.00,meteohub,2013-05-31 03:32:00,
2013-05-30 23:37:00,66.6,51.8,30.16,SE,145,0.0,0.0,59,0.00,,,0.00,meteohub,2013-05-31 03:37:00,
2013-05-30 23:42:00,66.6,51.8,30.16,SE,145,0.0,0.0,59,0.00,,,0.00,meteohub,2013-05-31 03:42:00,
2013-05-30 23:47:00,66.4,51.6,30.16,SE,145,0.0,0.0,59,0.00,,,0.00,meteohub,2013-05-31 03:47:00,
2013-05-30 23:52:00,66.2,52.0,30.16,ESE,122,0.0,0.0,60,0.00,,,0.00,meteohub,2013-05-31 03:52:00,
2013-05-30 23:57:00,65.8,52.0,30.16,SSW,212,0.0,0.0,61,0.00,,,0.00,meteohub,2013-05-31 03:57:00,